FW0338 Weather Reports


Display with metric or nautical units.
time (UTC)temp
F
wind
direction
speed
MPH
gust
MPH
rain 1hr
in
rain 24hr
in
rain mn
in
humidity
%
barometer
mb
20260505063928 65 177 3.0 5.0 0.00 0.00 0.00 82 1010.7
20260505063428 65 148 2.0 5.0 0.00 0.00 0.00 81 1010.7
20260505062928 65 173 3.0 6.0 0.00 0.00 0.00 81 1010.7
20260505062428 65 182 4.0 7.0 0.00 0.00 0.00 81 1010.8
20260505061931 65 184 3.0 7.0 0.00 0.00 0.00 81 1010.8
20260505061432 65 128 2.0 5.0 0.00 0.00 0.00 81 1010.8
20260505060931 65 188 2.0 5.0 0.00 0.00 0.00 81 1010.9
20260505060703 65 173 2.0 5.0 0.00 0.00 0.00 81 1011.0
20260505055931 65 172 3.0 5.0 0.00 0.00 0.00 80 1010.9
20260505055431 65 175 3.0 5.0 0.00 0.00 0.00 80 1010.9
20260505054931 65 184 2.0 5.0 0.00 0.00 0.00 80 1011.1
20260505054431 65 175 2.0 5.0 0.00 0.00 0.00 80 1011.1
20260505053931 65 161 3.0 5.0 0.00 0.00 0.00 80 1011.1
20260505053431 65 180 2.0 5.0 0.00 0.00 0.00 80 1011.1
20260505052931 65 161 2.0 5.0 0.00 0.00 0.00 80 1011.2
20260505052431 65 169 2.0 5.0 0.00 0.00 0.00 80 1011.4
20260505051931 65 196 2.0 4.0 0.00 0.00 0.00 80 1011.2
20260505051913 65 202 2.0 4.0 0.00 0.00 0.00 80 1011.6
20260505051153 65 190 2.0 4.0 0.00 0.00 0.00 80 1011.7
20260505050429 65 190 2.0 4.0 0.00 0.00 0.00 80 1011.8
20260505041650 65 177 3.0 5.0 0.00 0.00 0.00 82 1011.4
20260505040931 64 196 2.0 4.0 0.00 0.00 0.00 82 1011.7
20260505040432 64 196 2.0 4.0 0.00 0.00 0.00 83 1011.7
20260505040420 64 175 2.0 3.0 0.00 0.00 0.00 82 1011.7
20260505035431 65 175 2.0 4.0 0.00 0.00 0.00 82 1011.6
20260505035154 65 175 2.0 4.0 0.00 0.00 0.00 82 1011.8
20260505034431 65 175 2.0 3.0 0.00 0.00 0.00 82 1011.7
20260505033931 65 175 2.0 3.0 0.00 0.00 0.00 82 1011.7
20260505033431 65 175 2.0 3.0 0.00 0.00 0.00 82 1011.6
20260505033150 65 175 2.0 3.0 0.00 0.00 0.00 81 1011.6
20260505032655 65 175 2.0 3.0 0.00 0.00 0.00 81 1011.7
20260505031930 65 174 2.0 3.0 0.00 0.00 0.00 81 1011.7
20260505031649 65 176 2.0 3.0 0.00 0.00 0.00 80 1011.5
20260505030904 65 176 2.0 3.0 0.00 0.00 0.00 80 1011.6
20260505030403 66 176 2.0 3.0 0.00 0.00 0.00 80 1011.5
20260505030121 66 176 2.0 3.0 0.00 0.00 0.00 79 1011.6
20260505025403 66 176 2.0 3.0 0.00 0.00 0.00 79 1011.5
20260505024903 67 176 2.0 3.0 0.00 0.00 0.00 78 1011.5
20260505024403 67 176 1.0 3.0 0.00 0.00 0.00 77 1011.3
20260505023903 67 176 2.0 4.0 0.00 0.00 0.00 77 1011.4
20260505023403 67 195 2.0 4.0 0.00 0.00 0.00 76 1011.1
20260505022903 67 167 2.0 4.0 0.00 0.00 0.00 76 1011.0
20260505022403 68 182 2.0 4.0 0.00 0.00 0.00 76 1010.9
20260505021903 68 182 2.0 4.0 0.00 0.00 0.00 75 1011.1
20260505021403 68 182 2.0 4.0 0.00 0.00 0.00 75 1011.1
20260505021130 68 157 2.0 3.0 0.00 0.00 0.00 75 1010.9
20260505020403 68 156 2.0 4.0 0.00 0.00 0.00 75 1011.1
20260505020128 68 192 3.0 5.0 0.00 0.00 0.00 74 1011.1
20260505015404 68 171 2.0 5.0 0.00 0.00 0.00 74 1010.8
20260505015344 69 192 3.0 5.0 0.00 0.00 0.00 74 1010.9
20260505014852 69 165 2.0 5.0 0.00 0.00 0.00 74 1010.8
20260505014332 69 164 1.0 4.0 0.00 0.00 0.00 73 1010.8
20260505014055 69 164 2.0 4.0 0.00 0.00 0.00 73 1010.8
20260505012903 69 164 1.0 2.0 0.00 0.00 0.00 74 1010.8
20260505012403 69 140 1.0 2.0 0.00 0.00 0.00 74 1010.8
20260505011903 69 142 1.0 2.0 0.00 0.00 0.00 73 1010.7
20260505011403 69 142 0.0 2.0 0.00 0.00 0.00 73 1010.8
20260505010903 70 142 0.0 2.0 0.00 0.00 0.00 73 1010.9
20260505010403 70 142 1.0 2.0 0.00 0.00 0.00 72 1010.8
20260505010133 70 142 1.0 2.0 0.00 0.00 0.00 72 1010.8
20260505005402 71 177 1.0 2.0 0.00 0.00 0.00 71 1010.6
20260505004903 71 177 1.0 4.0 0.00 0.00 0.00 71 1010.6
20260505004402 71 177 2.0 4.0 0.00 0.00 0.00 70 1010.5
20260505004118 71 167 3.0 5.0 0.00 0.00 0.00 70 1010.6
20260505003402 72 169 2.0 5.0 0.00 0.00 0.00 69 1010.5
20260505002902 72 169 2.0 4.0 0.00 0.00 0.00 69 1010.7
20260505002623 72 167 3.0 4.0 0.00 0.00 0.00 69 1010.7
20260505002347 73 155 2.0 4.0 0.00 0.00 0.00 68 1010.6
20260505001627 73 185 3.0 4.0 0.00 0.00 0.00 68 1010.6
20260505000901 73 183 3.0 5.0 0.00 0.00 0.00 68 1010.6
20260505000335 74 175 3.0 6.0 0.00 0.00 0.00 66 1010.6
20260504235830 74 174 3.0 6.0 0.00 0.00 0.00 67 1010.8
20260504235329 74 173 3.0 8.0 0.00 0.00 0.00 66 1010.9
20260504234829 74 189 3.0 8.0 0.00 0.00 0.00 65 1011.1
20260504234329 74 169 2.0 6.0 0.00 0.00 0.00 65 1010.9
20260504234053 75 165 5.0 6.0 0.00 0.00 0.00 63 1011.1
20260504233329 75 180 4.0 6.0 0.00 0.00 0.00 62 1011.3
20260504233100 75 178 4.0 7.0 0.00 0.00 0.00 64 1011.4
20260504232329 75 213 3.0 7.0 0.00 0.00 0.00 63 1011.5
20260504231829 75 180 4.0 8.0 0.00 0.00 0.00 63 1011.5
20260504231329 75 193 5.0 8.0 0.00 0.00 0.00 63 1011.5
20260504230829 76 181 3.0 9.0 0.00 0.00 0.00 62 1011.4
20260504230329 76 188 4.0 9.0 0.00 0.00 0.00 62 1011.6
20260504225828 76 171 5.0 8.0 0.00 0.00 0.00 60 1011.6
20260504225329 76 226 6.0 8.0 0.00 0.00 0.00 62 1011.8
20260504224829 76 184 6.0 7.0 0.00 0.00 0.00 61 1011.7
20260504224329 76 159 4.0 10.0 0.00 0.00 0.00 61 1011.7
20260504223829 76 175 5.0 10.0 0.00 0.00 0.00 59 1011.7
20260504223329 77 176 5.0 8.0 0.00 0.00 0.00 61 1011.8
20260504222829 77 183 4.0 6.0 0.00 0.00 0.00 61 1011.9
20260504222329 77 192 6.0 13.0 0.00 0.00 0.00 59 1011.8
20260504221828 77 201 9.0 13.0 0.00 0.00 0.00 58 1011.8
20260504221314 77 186 5.0 9.0 0.00 0.00 0.00 61 1011.9
20260504220813 77 178 6.0 10.0 0.00 0.00 0.00 60 1011.8
20260504220308 76 187 6.0 11.0 0.00 0.00 0.00 60 1011.9
20260504220249 77 188 7.0 12.0 0.00 0.00 0.00 59 1012.1
20260504220012 76 242 6.0 12.0 0.00 0.00 0.00 59 1012.0
20260504214801 77 188 5.0 9.0 0.00 0.00 0.00 62 1012.2
20260504214301 76 227 6.0 10.0 0.00 0.00 0.00 58 1012.2
20260504213802 77 202 5.0 10.0 0.00 0.00 0.00 59 1012.3
20260504213301 77 198 5.0 10.0 0.00 0.00 0.00 60 1012.2
20260504212801 77 211 7.0 10.0 0.00 0.00 0.00 59 1012.5
20260504212757 77 206 5.0 11.0 0.00 0.00 0.00 60 1012.6
20260504211800 78 245 7.0 13.0 0.00 0.00 0.00 58 1012.6
20260504211300 78 194 6.0 13.0 0.00 0.00 0.00 60 1012.6
20260504210801 78 181 4.0 10.0 0.00 0.00 0.00 57 1012.4
20260504210301 78 176 6.0 10.0 0.00 0.00 0.00 59 1012.6
20260504205801 78 192 5.0 10.0 0.00 0.00 0.00 56 1012.6
20260504205301 78 174 5.0 7.0 0.00 0.00 0.00 58 1012.6
20260504205012 77 177 4.0 12.0 0.00 0.00 0.00 57 1012.7
20260504205002 77 194 3.0 9.0 0.00 0.00 0.00 57 1012.6
20260504203804 76 241 7.0 12.0 0.00 0.00 0.00 60 1012.8
20260504203303 76 237 5.0 10.0 0.00 0.00 0.00 55 1012.9
20260504203028 77 171 5.0 10.0 0.00 0.00 0.00 56 1013.0
20260504202304 77 175 6.0 13.0 0.00 0.00 0.00 60 1013.3
20260504201803 77 190 8.0 13.0 0.00 0.00 0.00 57 1013.2
20260504201524 77 207 7.0 10.0 0.00 0.00 0.00 56 1013.3
20260504200753 77 222 5.0 10.0 0.00 0.00 0.00 57 1013.3
20260504200249 77 209 7.0 0.0 0.00 0.00 0.00 57 1013.5
20260504195903 0 0.0 0.0 0.00 0.00 0.00
20260504195402 0 0.0 0.0 0.00 0.00 0.00
20260504194831 0 0.0 0.0 0.00 0.00 0.00
20260504194330 0 0.0 0.0 0.00 0.00 0.00
20260504193804 0 0.0 0.0 0.00 0.00 0.00
20260504193302 0 0.0 0.0 0.00 0.00 0.00
20260504192731 0 0.0 0.0 0.00 0.00 0.00
20260504192719 0 0.0 0.0 0.00 0.00 0.00
20260504191925 0 0.0 0.0 0.00 0.00 0.00
20260504191202 0 0.0 0.0 0.00 0.00 0.00
20260504190631 0 0.0 0.0 0.00 0.00 0.00
20260504190130 0 0.0 0.0 0.00 0.00 0.00
20260504185603 0 0.0 0.0 0.00 0.00 0.00
20260504185102 0 0.0 0.0 0.00 0.00 0.00
20260504184532 0 0.0 0.0 0.00 0.00 0.00
20260504184030 0 0.0 0.0 0.00 0.00 0.00
20260504183503 0 0.0 0.0 0.00 0.00 0.00
20260504183003 0 0.0 0.0 0.00 0.00 0.00
20260504182432 0 0.0 0.0 0.00 0.00 0.00
20260504181930 0 0.0 0.0 0.00 0.00 0.00
20260504181403 0 0.0 0.0 0.00 0.00 0.00
20260504181124 0 0.0 0.0 0.00 0.00 0.00
20260504180303 0 0.0 0.0 0.00 0.00 0.00
20260504175802 0 0.0 0.0 0.00 0.00 0.00
20260504175523 0 0.0 0.0 0.00 0.00 0.00
20260504175512 0 0.0 0.0 0.00 0.00 0.00
20260504174203 0 0.0 0.0 0.00 0.00 0.00
20260504173702 0 0.0 0.0 0.00 0.00 0.00
20260504173131 0 0.0 0.0 0.00 0.00 0.00
20260504172630 0 0.0 0.0 0.00 0.00 0.00
20260504172103 0 0.0 0.0 0.00 0.00 0.00
20260504171602 0 0.0 0.0 0.00 0.00 0.00
20260504171031 0 0.0 0.0 0.00 0.00 0.00
20260504170531 0 0.0 0.0 0.00 0.00 0.00
20260504160303 73 199 7.0 12.0 0.00 0.00 0.00 59 1015.9
20260504150804 71 155 6.0 12.0 0.00 0.00 0.00 67 1016.0
20260504150303 71 194 7.0 10.0 0.00 0.00 0.00 65 1015.8
20260504141303 68 212 3.0 6.0 0.00 0.00 0.00 78 1016.1
20260504140803 67 209 3.0 6.0 0.00 0.00 0.00 77 1016.1
20260504140304 67 189 3.0 6.0 0.00 0.00 0.00 80 1016.0
20260504130749 60 225 0.0 0.0 0.00 0.00 0.00 99 1016.1
20260504120303 52 225 0.0 0.0 0.00 0.00 0.00 96 1015.9
20260504110304 53 225 0.0 0.0 0.00 0.00 0.00 95 1015.6
20260504100524 53 225 0.0 0.0 0.00 0.00 0.00 94 1015.4
20260504082005 55 225 0.0 0.0 0.00 0.00 0.00 93 1016.0
20260504081954 55 225 0.0 0.0 0.00 0.00 0.00 93 1016.0
20260504080800 56 225 0.0 0.0 0.00 0.00 0.00 93 1015.8
20260504080302 56 225 0.0 0.0 0.00 0.00 0.00 93 1016.0
20260504070302 56 225 0.0 0.0 0.00 0.00 0.00 91 1016.4